FW3899 Weather Reports


Display with metric or nautical units.
time (UTC)temp
F
wind
direction
speed
MPH
gust
MPH
rain 1hr
in
rain 24hr
in
rain mn
in
humidity
%
barometer
mb
20260507193005 52 275 1.0 4.0 0.00 0.06 0.06 81 1014.3
20260507191507 52 272 1.0 3.0 0.00 0.06 0.06 80 1014.2
20260507190005 52 272 1.0 4.0 0.00 0.06 0.06 81 1014.1
20260507184503 52 303 0.0 2.0 0.00 0.06 0.06 79 1014.0
20260507183003 54 303 0.0 1.0 0.00 0.06 0.06 77 1013.9
20260507181503 55 304 2.0 4.0 0.00 0.06 0.06 75 1013.9
20260507180002 55 291 0.0 3.0 0.00 0.06 0.06 73 1013.9
20260507174503 56 335 1.0 5.0 0.00 0.06 0.06 71 1013.8
20260507173001 57 33 3.0 7.0 0.00 0.06 0.06 69 1013.6
20260507171619 57 317 2.0 4.0 0.00 0.06 0.06 70 1013.4
20260507170059 57 338 1.0 5.0 0.00 0.06 0.06 70 1013.5
20260507164558 58 330 0.0 7.0 0.00 0.06 0.06 70 1013.4
20260507163058 58 9 2.0 4.0 0.00 0.06 0.06 68 1013.3
20260507161558 59 347 4.0 7.0 0.00 0.06 0.06 70 1013.4
20260507160116 60 27 3.0 8.0 0.00 0.06 0.06 67 1013.4
20260507154555 60 30 1.0 7.0 0.00 0.06 0.06 68 1013.4
20260507153054 60 310 3.0 6.0 0.00 0.06 0.06 70 1013.4
20260507151558 60 295 2.0 6.0 0.00 0.06 0.06 68 1013.5
20260507150051 62 353 2.0 8.0 0.00 0.06 0.06 66 1013.6
20260507144552 62 252 4.0 7.0 0.00 0.06 0.06 64 1013.5
20260507143057 63 34 6.0 10.0 0.00 0.06 0.06 66 1013.6
20260507141548 62 345 4.0 7.0 0.00 0.06 0.06 70 1013.7
20260507140048 61 286 2.0 8.0 0.00 0.06 0.06 72 1013.7
20260507134542 58 288 5.0 8.0 0.00 0.08 0.06 79 1013.8
20260507133041 58 318 4.0 11.0 0.00 0.08 0.06 73 1014.0
20260507131607 57 17 3.0 9.0 0.00 0.08 0.06 75 1014.0
20260507130039 59 40 5.0 7.0 0.00 0.08 0.06 76 1014.0
20260507124549 59 12 1.0 9.0 0.00 0.17 0.06 75 1014.1
20260507123043 60 284 3.0 11.0 0.00 0.17 0.06 73 1014.1
20260507121537 59 343 3.0 8.0 0.00 0.17 0.06 75 1014.1
20260507120040 58 9 4.0 10.0 0.00 0.17 0.06 78 1014.2
20260507114535 57 36 6.0 10.0 0.00 0.43 0.06 78 1014.1
20260507113100 57 322 3.0 8.0 0.00 0.43 0.06 81 1014.3
20260507111534 60 310 2.0 5.0 0.00 0.43 0.06 77 1014.1
20260507110034 58 207 3.0 7.0 0.00 0.43 0.06 75 1014.3
20260507104526 57 186 7.0 10.0 0.00 0.43 0.06 80 1014.3
20260507103022 55 234 5.0 8.0 0.00 0.43 0.06 81 1014.4
20260507101524 55 162 2.0 9.0 0.00 0.43 0.06 83 1014.5
20260507100030 54 284 1.0 4.0 0.00 0.44 0.06 84 1014.5
20260507094515 54 297 2.0 8.0 0.00 0.44 0.06 88 1014.5
20260507093014 52 263 2.0 8.0 0.00 0.44 0.06 87 1014.6
20260507091510 52 212 5.0 10.0 0.00 0.44 0.06 90 1014.4
20260507090007 51 265 4.0 10.0 0.00 0.44 0.06 91 1014.4
20260507084502 50 229 6.0 9.0 0.00 0.44 0.06 93 1014.3
20260507083057 49 253 7.0 11.0 0.01 0.44 0.06 94 1014.3
20260507081553 48 270 7.0 12.0 0.02 0.44 0.06 95 1014.3
20260507080053 48 238 3.0 9.0 0.03 0.44 0.06 95 1014.2
20260507074547 47 201 4.0 9.0 0.05 0.44 0.06 95 1014.1
20260507073043 47 216 4.0 6.0 0.04 0.43 0.06 95 1014.1
20260507071544 47 248 3.0 6.0 0.03 0.43 0.05 94 1014.1
20260507070052 47 240 3.0 6.0 0.02 0.41 0.03 95 1014.0
20260507064544 47 226 4.0 6.0 0.00 0.39 0.02 94 1013.9
20260507063035 47 247 2.0 4.0 0.00 0.39 0.02 94 1013.7
20260507061536 47 205 2.0 4.0 0.00 0.39 0.02 94 1013.6
20260507060035 47 256 2.0 6.0 0.00 0.39 0.02 94 1013.5
20260507054535 47 211 3.0 6.0 0.00 0.39 0.02 94 1013.3
20260507053023 46 229 4.0 6.0 0.00 0.39 0.02 94 1013.3
20260507051522 46 233 5.0 9.0 0.00 0.39 0.02 94 1013.1
20260507050044 46 215 6.0 9.0 0.00 0.39 0.02 94 1012.9
20260507044522 46 229 6.0 11.0 0.00 0.39 0.02 94 1012.7
20260507043014 46 236 7.0 10.0 0.00 0.39 0.02 94 1012.6
20260507041514 46 207 5.0 12.0 0.00 0.39 0.02 94 1012.5
20260507040015 46 253 5.0 9.0 0.00 0.39 0.02 94 1012.5
20260507034512 46 260 6.0 10.0 0.00 0.39 0.02 94 1012.3
20260507033019 45 274 4.0 8.0 0.01 0.39 0.02 94 1012.3
20260507031510 45 256 3.0 8.0 0.02 0.39 0.02 94 1012.3
20260507030009 45 243 3.0 9.0 0.02 0.39 0.02 93 1012.2
20260507024512 46 257 4.0 9.0 0.02 0.39 0.02 93 1012.2
20260507023007 46 254 6.0 12.0 0.01 0.39 0.01 92 1012.1
20260507021512 46 263 8.0 15.0 0.00 0.38 0.00 91 1012.0
20260507020003 46 226 6.0 12.0 0.00 0.38 0.00 90 1011.8
20260507014502 46 263 8.0 17.0 0.00 0.38 0.00 89 1011.7
20260507013059 46 224 6.0 12.0 0.00 0.38 0.00 89 1011.5
20260507011603 47 215 10.0 14.0 0.00 0.38 0.00 89 1011.4
20260507004556 46 247 9.0 15.0 0.00 0.38 0.00 89 1011.2
20260507003056 47 276 6.0 12.0 0.00 0.38 0.00 90 1011.2
20260507001604 46 221 8.0 13.0 0.00 0.38 0.00 90 1011.2
20260507000056 46 273 5.0 14.0 0.00 0.38 0.00 89 1011.3
20260506234614 46 258 10.0 14.0 0.00 0.38 0.00 90 1011.3
20260506233051 46 282 8.0 13.0 0.00 0.38 0.00 90 1011.2
20260506231550 46 241 8.0 13.0 0.00 0.38 0.00 90 1011.2
20260506230049 46 242 6.0 13.0 0.00 0.38 0.00 90 1011.0
20260506224548 47 265 8.0 13.0 0.00 0.38 0.00 90 1011.0
20260506223048 46 252 7.0 10.0 0.00 0.38 0.00 90 1011.1
20260506221542 46 238 4.0 9.0 0.00 0.38 0.00 90 1011.1
20260506220039 46 233 3.0 7.0 0.00 0.38 0.00 90 1011.1
20260506214541 46 247 4.0 7.0 0.00 0.38 0.38 91 1011.0
20260506213038 47 212 3.0 9.0 0.00 0.38 0.38 90 1011.0
20260506211536 47 243 7.0 10.0 0.00 0.38 0.38 91 1011.0
20260506210038 46 234 6.0 10.0 0.00 0.38 0.38 92 1011.0
20260506204548 45 251 5.0 9.0 0.00 0.38 0.38 93 1010.8
20260506203033 45 212 4.0 6.0 0.00 0.38 0.38 92 1011.0
20260506201534 46 207 3.0 7.0 0.00 0.38 0.38 91 1010.7
20260506200028 46 203 6.0 10.0 0.00 0.38 0.38 90 1010.4
20260506194526 47 238 7.0 12.0 0.00 0.38 0.38 89 1010.1